Location: York
(31.8935°S, 116.7682°E)
Time: 16:19:35
(UTC+08:00)

Vanguard 1 Rocket - All Passes

Search period start: 25 September 2022 00:00
Search period end: 05 October 2022 00:00
Orbit: 651 x 4224 km, 34.3° (Epoch: 24 September)

Date Brightness Start Highest point End Pass type
(mag) Time Alt. Az. Time Alt. Az. Time Alt. Az.
25 Sep - 07:00:59 10° NNE 07:06:28 19° NE 07:14:24 10° E daylight
25 Sep - 09:21:23 10° NW 09:31:10 69° NNE 09:50:49 10° ESE daylight
25 Sep - 11:46:29 10° W 12:01:06 83° S 12:26:54 10° E daylight
25 Sep - 14:14:00 10° WSW 14:34:44 86° NNW 15:01:16 10° ENE daylight
25 Sep - 16:44:08 10° WSW 17:07:43 53° NW 17:29:37 10° NNE daylight
25 Sep - 19:22:58 10° W 19:36:50 18° NW 19:48:47 10° NNW visible
26 Sep - 08:11:21 10° NNW 08:19:17 47° NE 08:34:20 10° ESE daylight
26 Sep - 10:34:58 10° WNW 10:46:47 89° SSW 11:09:56 10° E daylight
26 Sep - 13:01:23 10° W 13:18:57 86° S 13:45:53 10° ENE daylight
26 Sep - 15:29:55 10° WSW 15:52:34 68° NNW 16:17:16 10° NE daylight
26 Sep - 18:03:10 10° W 18:23:29 31° NW 18:41:15 10° N visible
27 Sep - 07:02:22 10° N 07:08:22 25° NE 07:17:53 10° E daylight
27 Sep - 09:24:02 10° WNW 09:33:36 78° NNE 09:53:08 10° ESE daylight
27 Sep - 11:49:22 10° W 12:03:46 83° S 12:29:23 10° E daylight
27 Sep - 14:16:41 10° WSW 14:36:59 80° NNW 15:03:28 10° ENE daylight
27 Sep - 16:46:58 10° WSW 17:09:22 45° NW 17:30:57 10° NNE daylight
27 Sep - 19:30:38 10° WNW 19:38:28 12° NW 19:45:45 10° NW visible
28 Sep - 08:13:45 10° NW 08:21:30 57° NE 08:36:49 10° ESE daylight
28 Sep - 10:37:51 10° W 10:49:28 84° S 11:12:21 10° E daylight
28 Sep - 13:04:11 10° WSW 13:21:27 90° SSE 13:48:16 10° ENE daylight
28 Sep - 15:32:36 10° WSW 15:54:28 60° NW 16:18:57 10° NE daylight
28 Sep - 18:07:09 10° W 18:25:03 24° NW 18:41:23 10° N visible
29 Sep - 07:04:15 10° NNW 07:10:24 33° NE 07:20:54 10° ESE daylight
29 Sep - 09:26:49 10° WNW 09:36:10 86° NNE 09:55:29 10° ESE daylight
29 Sep - 11:52:15 10° W 12:06:26 84° S 12:31:52 10° E daylight
29 Sep - 14:19:24 10° WSW 14:39:09 73° NNW 15:05:27 10° NE daylight
29 Sep - 16:50:05 10° W 17:11:00 38° NW 17:31:53 10° NNE daylight
30 Sep - 05:56:30 10° NNE 05:59:56 14° NE 06:04:21 10° E daylight
30 Sep - 08:16:19 10° NW 08:23:55 68° NNE 08:39:14 10° ESE daylight
30 Sep - 10:40:46 10° W 10:52:13 82° S 11:14:49 10° E daylight
30 Sep - 13:06:58 10° WSW 13:23:52 85° NNW 13:50:29 10° ENE daylight
30 Sep - 15:35:25 10° WSW 15:56:20 52° NW 16:20:20 10° NNE daylight
30 Sep - 18:12:15 10° W 18:26:44 18° NW 18:40:29 10° NNW visible
01 Oct - 07:06:27 10° NNW 07:12:35 42° NE 07:23:40 10° ESE daylight
01 Oct - 09:29:42 10° WNW 09:38:53 87° SSW 09:57:53 10° E daylight
01 Oct - 11:55:07 10° W 12:09:04 86° SSE 12:34:16 10° ENE daylight
01 Oct - 14:22:08 10° WSW 14:41:15 65° NNW 15:07:10 10° NE daylight
01 Oct - 16:53:36 10° W 17:12:42 31° NW 17:32:20 10° N daylight
02 Oct - 05:57:38 10° N 06:02:00 21° NE 06:08:14 10° E daylight
02 Oct - 08:19:03 10° WNW 08:26:29 79° NNE 08:41:38 10° ESE daylight
02 Oct - 10:43:41 10° W 10:54:57 82° S 11:17:18 10° E daylight
02 Oct - 13:09:45 10° WSW 13:26:14 78° NNW 13:52:31 10° ENE daylight
02 Oct - 15:38:25 10° WSW 15:58:11 44° NW 16:21:22 10° NNE daylight
02 Oct - 18:19:54 10° WNW 18:28:36 13° NW 18:37:10 10° NNW visible
03 Oct - 07:08:53 10° NW 07:14:58 54° NNE 07:26:17 10° ESE daylight
03 Oct - 09:32:38 10° W 09:41:39 82° S 10:00:20 10° E daylight
03 Oct - 11:57:57 10° WSW 12:11:38 89° NNW 12:36:34 10° ENE daylight
03 Oct - 14:24:57 10° WSW 14:43:20 57° NNW 15:08:37 10° NE daylight
03 Oct - 16:57:48 10° W 17:14:31 24° NW 17:32:04 10° N daylight
04 Oct - 05:59:28 10° NNW 06:04:11 28° NE 06:11:28 10° E daylight
04 Oct - 08:21:53 10° WNW 08:29:10 88° NNE 08:44:05 10° ESE daylight
04 Oct - 10:46:37 10° W 10:57:42 83° S 11:19:45 10° E daylight
04 Oct - 13:12:33 10° WSW 13:28:32 71° NNW 13:54:20 10° NE daylight
04 Oct - 15:41:43 10° W 16:00:06 36° NW 16:21:58 10° NNE daylight
